sat.trackr.live / text

‹ back to catalog

KUIPER-00085

NORAD 64831 · 2025-151R

PAYLOAD ACTIVE UNKNOWN

§ Identity

Operator
Country
US
Launch date
2025-07-16
Launch site
AFETR
Launch vehicle
Mass (kg)
RCS (m²)

External: N2YO · Heavens-Above · Gunter

§ Orbital elements

Epoch: 2026-05-25T04:24:21.125376Z

Period
97.30 min
Inclination
51.9029°
Eccentricity
0.0000736
Mean motion
14.79931142 rev/d
Perigee alt
629.0 km
Apogee alt
630.1 km
Semi-major
7,007.7 km
B*
8.9039e-5
RAAN
309.8947°
Arg perigee
121.9746°
Mean anomaly
238.1288°
Rev number
4,680

§ Raw data

KUIPER-000851 64831U 25151R   26145.18357784  .00000458  00000+0  89039-4 0  99962 64831  51.9029 309.8947 0000736 121.9746 238.1288 14.79931142 46807

JSON: /api/v1/satellites/64831 · /tle

For live sub-satellite position, see the globe view (requires WebGL).

§ Visibility from observer

Set your observer location to see the next 7 days of passes ≥ 10°. The values pass through the URL so the page stays shareable.

No JS? Fill the form by hand. The geolocation button needs JavaScript.